Regional Weather Roundup
Issued by NWS

Home | Current Version | Previous Version | Text Only | Print | Product List | Glossary Off
Versions: 1 2 3 4 5 6 7 8 9 10 11 12 13 14 15 16 17 18 19 20 21 22 23 24 25 26 27 28 29 30 31 32 33 34 35 36 37 38 39 40 41 42 43 44 45 46 47 48 49 50

000
ASUS43 KLSX 280059
RWRMO

WEATHER SUMMARY FOR MISSOURI
NATIONAL WEATHER SERVICE SPRINGFIELD MO
800 PM CDT WED MAY 27 2015

NOTE: "FAIR" INDICATES FEW OR NO CLOUDS BELOW 12,000 FEET WITH NO
       SIGNIFICANT WEATHER AND/OR OBSTRUCTIONS TO VISIBILITY.
       CURRENT SKY AND/OR WEATHER CONDITIONS ARE NOT AVAILABLE FOR
       CHILLICOTHE AND FARMINGTON.

MOZ001>031-035>038-043-044-053-054-280200-
...NORTHERN AND WESTERN MISSOURI...

CITY           SKY/WX    TMP DP  RH WIND       PRES   REMARKS
KANSAS CTY INT MOCLDY    77  51  40 E9        30.06S
KANSAS C DTWN  CLEAR     79  53  40 SE7       30.05S
LEE`S SUMMIT   CLEAR     74  56  53 E6        30.07S
ST JOSEPH      PTCLDY    75  56  51 SE6       30.06R
KIRKSVILLE     PTCLDY    75  60  59 CALM      30.09S

$$
MOZ066>068-077>081-088>096-101>105-280200-
...SOUTHWEST MISSOURI...

CITY           SKY/WX    TMP DP  RH WIND       PRES   REMARKS
SPRINGFIELD    CLEAR     79  65  62 E7        30.06S
JOPLIN         CLEAR     78  66  66 CALM      30.05S

$$
MOZ032>034-039>042-045>050-055>058-069>072-280200-
...CENTRAL MISSOURI...

CITY           SKY/WX    TMP DP  RH WIND       PRES   REMARKS
COLUMBIA       PTCLDY    77  60  55 NE3       30.08R
JEFFERSON CITY CLEAR     80  56  43 NE3       30.06S
ROLLA          CLEAR     74  61  63 N5        30.08R
SEDALIA        CLEAR     79  56  45 CALM      30.08S
WHITEMAN AFB   PTCLDY    77  57  50 E1        30.06R
OSAGE BEACH    CLEAR     72  61  68 NE3       30.07S

$$
MOZ051-052-059>065-280200-
...EAST CENTRAL MISSOURI...

CITY           SKY/WX    TMP DP  RH WIND       PRES   REMARKS
ST LOUIS INTL  PTCLDY    76  58  53 N7        30.08R
SPIRIT OF STL  PTCLDY    78  58  49 N3        30.07R
ST CHARLES     CLEAR     75  61  61 N5        30.07R

$$
MOZ072>076-082>087-097>100-106>115-280200-
...SOUTH CENTRAL AND SOUTHEAST MISSOURI...

CITY           SKY/WX    TMP DP  RH WIND       PRES   REMARKS
CAPE GIRARDEAU MOCLDY    74  70  87 S5        30.07S
FARMINGTON     PTCLDY    77  64  65 NE7       30.12R
POPLAR BLUFF   MOCLDY    76  68  76 S5        30.06S
WEST PLAINS    CLOUDY    73  64  73 SE7       30.10R

$$


USA.gov is the U.S. government's official web portal to all federal, state and local government web resources and services.